Temperature
29 29 27 27 28 28 28 27 27 25 24 24 23 22 21 20 20 19 19 19 18 17 17 16 15 15 15 14 14 14 14 14 15 15 15 15 16 16 16 17 17 17 17 17
29 28 27 28 28 28 28 27 27 25 24 24 23 22 21 20 20 19 19 18 18 17 16 15 15 14 14 14 14 14 14 14 14 14 14 14 15 15 16 16 16 17 17 17
27 27 27 27 27 27 27 26 25 25 24 24 23 22 21 21 20 19 18 18 17 16 15 15 14 14 14 13 13 13 13 13 13 14 14 14 14 15 15 16 16 16 16 16
27 27 27 27 27 25 25 25 24 24 24 23 23 21 20 21 20 19 18 17 16 16 15 14 14 13 13 13 13 13 13 13 13 13 13 14 14 14 15 15 15 16 16 16
26 26 26 26 25 24 24 24 24 24 23 23 24 23 20 21 19 18 18 17 16 15 15 14 14 13 13 13 12 12 13 13 13 13 13 13 13 14 14 14 15 15 15 16
25 25 25 25 25 24 24 24 24 24 24 22 24 23 20 19 18 18 18 17 16 15 15 14 14 13 13 12 12 12 12 12 13 13 13 13 13 14 14 14 14 15 15 15
25 25 25 25 24 25 25 24 23 23 22 22 23 22 19 18 19 18 17 17 16 15 15 14 13 13 13 12 12 12 12 12 12 12 13 13 13 13 14 14 14 14 14 15
27 25 24 24 23 23 24 24 22 22 23 22 22 21 18 19 19 18 17 17 16 15 15 14 13 13 13 12 12 12 12 12 12 12 13 13 13 13 13 13 14 14 14 14
27 23 23 23 23 23 23 24 24 23 23 23 23 20 19 19 19 18 18 17 16 15 15 14 13 13 12 12 12 12 12 12 12 12 12 13 13 13 13 13 13 14 14 14
27 25 24 23 23 23 23 23 23 23 22 22 22 21 19 19 18 18 17 17 16 15 15 14 13 13 13 12 12 12 12 12 12 12 12 12 12 12 13 13 13 13 13 14
26 26 24 23 23 23 23 24 23 23 23 21 20 19 20 18 18 18 17 17 16 15 15 14 14 13 13 13 12 12 12 12 12 12 12 12 12 12 12 13 13 13 13 13
25 25 25 24 23 22 22 22 22 21 22 22 21 18 20 19 18 18 17 17 16 16 15 15 14 13 13 13 12 12 12 12 12 12 12 12 12 12 12 12 12 13 13 13
24 24 24 22 21 21 22 22 21 21 22 22 20 19 19 19 19 18 17 17 16 16 15 15 14 14 13 13 13 12 12 12 12 12 12 12 12 12 12 12 12 12 13 13
21 24 24 23 22 23 23 22 21 21 21 21 21 20 19 19 19 18 17 17 16 16 16 15 15 14 14 13 13 13 12 12 12 12 12 12 12 12 12 12 12 12 12 12
23 24 25 24 23 23 23 22 22 21 21 21 21 20 21 20 19 18 18 17 17 16 16 15 15 15 14 14 13 13 12 12 12 12 11 11 11 11 11 12 12 12 12 12
24 24 24 24 24 23 23 23 22 22 21 21 21 21 21 20 19 18 18 17 17 16 16 16 15 15 14 14 13 13 12 12 12 12 11 11 11 11 11 11 11 11 12 12
25 24 24 24 24 23 23 24 23 22 22 22 21 21 21 20 19 19 18 17 17 17 16 16 15 15 15 14 14 13 13 12 12 12 11 11 11 11 11 11 11 11 11 11
25 24 24 24 24 23 23 24 24 23 23 23 22 22 21 20 19 18 18 18 17 17 16 16 15 15 15 15 14 14 13 12 12 11 11 11 11 11 11 11 11 11 11 11
24 24 23 24 24 25 23 24 23 23 22 24 23 22 21 20 19 19 18 18 17 17 16 16 15 15 15 15 14 14 13 13 12 11 11 11 11 11 11 11 11 11 11 11
23 23 23 23 23 24 24 24 24 23 22 24 23 22 21 20 19 19 18 17 17 16 16 15 15 15 15 14 14 14 13 13 12 11 11 11 11 11 11 10 10 11 11 11
22 22 22 22 23 25 23 23 23 21 23 24 23 22 21 20 20 19 18 17 17 16 16 15 15 15 15 14 14 14 13 12 12 11 11 11 11 11 11 10 10 10 10 10
25 24 24 23 23 23 23 22 23 24 23 23 23 22 21 20 19 19 18 17 17 16 16 16 15 15 15 14 14 13 13 12 12 11 11 11 11 11 11 10 10 10 10 10
25 26 25 25 24 23 23 23 23 24 24 23 23 22 21 20 19 18 18 17 17 17 16 16 15 15 15 15 14 13 13 12 12 12 11 11 11 11 11 11 10 10 10 10
27 26 25 24 25 25 23 23 23 23 23 23 22 22 21 20 19 19 18 18 17 17 16 16 16 16 15 15 14 14 13 13 12 12 12 12 11 11 11 11 11 11 11 11
26 25 25 24 25 26 25 23 23 23 22 22 22 21 21 20 19 19 18 18 17 17 17 16 16 16 15 15 14 14 13 13 13 13 12 12 12 11 11 11 11 11 11 11
26 26 24 24 26 26 25 24 23 22 22 22 21 21 20 20 19 19 18 18 18 17 17 17 16 16 16 15 15 14 14 13 13 13 13 12 12 12 11 11 11 11 11 11
Wind_Speed
4 4 3 6 7 8 9 9 6 6 4 2 2 4 5 5 6 8 9 10 11 12 13 13 12 12 12 12 12 11 9 8 7 5 5 5 5 5 5 4 5 6 7 8
5 2 5 4 5 8 10 9 6 4 4 1 2 4 8 6 5 6 9 11 12 13 13 13 13 12 12 12 12 12 10 10 8 6 6 5 6 5 6 5 4 5 6 7
4 6 3 4 6 8 11 7 7 7 2 4 5 5 9 7 5 8 10 10 12 12 13 13 13 12 13 13 12 12 11 11 10 8 6 6 5 5 5 5 4 4 5 6
4 3 3 6 4 7 8 7 7 8 8 6 7 3 9 6 6 9 10 10 11 11 11 12 13 13 13 13 12 12 12 11 11 10 7 8 6 5 6 5 4 4 4 4
5 4 5 6 6 6 7 7 8 10 9 10 8 4 7 6 7 9 10 10 10 11 12 12 11 12 12 13 12 11 11 11 11 10 9 8 6 6 5 5 4 4 3 3
6 4 5 5 4 3 7 9 10 9 8 8 4 2 6 5 7 9 9 10 10 10 10 11 11 10 11 11 11 11 11 11 11 10 9 8 8 7 6 5 4 3 3 2
7 6 4 3 7 4 6 8 6 5 6 1 3 2 7 6 6 7 8 8 9 9 9 10 11 11 11 11 11 11 11 11 11 11 10 10 9 8 6 5 4 4 3 2
7 6 4 5 5 6 8 6 6 6 5 1 4 4 7 6 5 5 6 7 8 9 8 9 9 9 10 10 10 11 11 11 11 11 10 9 9 7 5 5 5 4 3 2
6 6 5 3 3 5 7 7 6 6 10 7 5 8 7 5 4 5 6 8 8 8 8 8 8 8 9 9 9 9 10 10 10 10 10 10 10 8 7 7 5 4 4 3
6 2 5 2 4 5 3 5 6 5 6 5 1 4 4 4 5 6 7 8 8 8 7 7 7 7 7 8 7 8 8 9 9 10 9 9 9 9 8 8 8 7 6 6
6 4 6 4 1 4 5 3 4 5 3 3 3 3 5 5 4 4 6 6 6 7 6 5 5 6 6 7 7 8 8 8 9 10 9 9 9 9 9 9 8 8 6 6
3 6 2 6 6 2 2 5 6 5 6 3 3 4 5 4 3 3 4 6 6 6 5 5 6 6 6 7 7 7 8 8 8 9 9 9 9 9 9 9 10 9 9 8
5 5 2 5 5 4 2 1 3 5 5 3 2 4 5 3 2 3 3 4 4 4 5 5 5 5 5 6 6 7 7 7 7 8 8 9 10 10 10 10 10 10 10 9
4 5 3 5 5 1 1 1 2 5 5 4 2 3 5 3 2 2 2 3 3 4 5 5 4 4 4 4 5 6 7 6 7 7 8 9 9 9 9 9 10 10 10 10
4 5 2 2 1 2 3 3 4 5 5 5 4 2 1 4 3 2 2 1 3 4 5 5 4 5 4 4 5 5 6 6 7 7 8 8 8 9 9 9 9 9 10 10
4 5 3 5 5 4 7 8 7 6 6 5 4 3 5 6 4 3 2 2 2 3 5 5 5 5 5 5 5 5 5 5 6 6 7 7 8 8 9 9 9 8 9 9
4 5 5 4 6 6 8 7 10 7 6 5 5 2 8 6 5 3 2 2 1 3 4 4 5 4 4 4 4 4 4 5 6 6 7 7 8 8 9 9 9 8 9 9
4 4 3 6 5 5 4 4 3 6 7 7 4 4 6 5 5 4 2 2 1 2 3 4 4 3 4 4 4 4 4 5 6 6 6 7 7 8 8 8 8 8 7 7
6 4 4 4 6 5 7 4 4 4 6 8 8 7 7 6 5 6 7 3 1 2 3 3 4 4 4 5 5 4 4 5 6 6 6 7 7 7 7 7 7 6 6 6
4 5 5 5 5 4 6 8 5 3 5 8 11 10 10 8 5 5 9 7 4 3 2 3 4 4 5 5 4 4 5 5 6 6 6 6 6 6 6 6 5 5 5 5
5 5 6 7 6 2 9 9 6 3 3 6 9 10 11 10 3 7 10 8 5 4 2 1 2 3 4 4 4 5 6 6 6 5 5 5 5 4 5 5 4 4 4 5
5 4 5 4 5 2 10 7 5 2 4 4 7 9 10 8 8 8 8 7 6 4 3 0 1 1 2 2 3 4 5 4 4 3 3 3 4 4 4 4 5 5 5 5
4 3 2 2 1 6 8 7 6 4 2 4 7 8 10 9 9 8 8 7 6 4 4 3 1 1 1 3 3 4 3 3 2 2 1 1 2 3 4 5 5 5 5 5
5 3 3 5 5 6 11 9 7 6 5 3 6 8 9 9 9 9 8 7 7 6 4 3 3 2 1 3 3 3 3 2 2 2 2 1 3 4 5 5 5 5 5 6
2 3 4 6 8 6 7 10 9 7 7 6 6 8 10 10 10 9 8 8 7 6 5 4 3 1 1 3 4 3 2 2 2 3 4 3 3 3 3 4 3 4 4 3
8 8 6 5 5 3 2 8 10 9 9 8 8 9 10 10 9 10 9 8 7 7 6 6 5 3 4 3 5 5 3 3 3 1 2 2 2 2 2 3 3 4 3 4
Wind_Direction
225 250 41 26 1 327 313 306 310 110 108 51 106 132 118 77 46 24 14 10 13 10 4 9 4 1 355 350 344 339 335 332 328 324 318 311 304 298 283 262 245 238 232 223
216 118 51 2 326 307 301 301 316 105 116 323 233 178 131 103 68 43 21 13 12 7 2 2 359 357 353 349 344 338 339 334 329 323 313 294 292 286 281 272 258 247 240 231
53 67 26 308 310 329 317 336 341 332 292 246 255 212 147 129 90 54 34 21 16 6 359 358 356 357 353 351 347 342 341 337 335 335 323 313 304 293 288 284 274 253 240 231
88 69 326 302 350 352 324 24 332 302 284 259 212 252 141 130 74 43 30 24 15 3 1 2 359 358 353 352 349 345 345 344 343 338 328 320 309 300 292 289 277 271 252 236
105 51 347 337 18 344 325 323 291 277 270 273 248 249 128 107 40 26 24 19 11 5 3 3 3 0 356 355 353 351 350 350 347 340 333 325 317 305 296 294 290 283 261 238
98 87 33 0 321 275 290 278 259 246 253 258 238 229 100 59 29 15 16 12 6 5 2 3 6 3 358 357 355 354 354 353 349 345 344 340 330 321 318 314 313 306 287 261
170 151 114 351 309 240 269 302 291 247 214 203 77 89 86 75 45 21 12 9 5 6 5 5 7 0 358 358 358 356 357 356 354 353 355 349 343 337 333 332 324 318 311 291
229 145 93 42 10 333 317 307 316 317 326 131 169 97 107 91 74 36 23 19 11 8 10 11 10 359 357 358 359 358 357 358 359 0 358 357 356 352 346 341 338 332 329 309
337 96 105 54 358 325 319 335 343 301 291 291 123 115 130 122 72 36 26 22 16 9 10 12 10 3 1 359 0 0 360 1 2 1 360 5 2 359 354 352 353 347 347 355
316 106 117 116 244 206 303 318 304 297 335 328 71 104 99 77 38 22 21 20 17 9 10 11 10 8 3 358 359 6 8 7 3 2 6 8 5 7 7 10 10 6 6 8
304 269 150 182 2 6 332 304 324 298 288 327 339 70 70 62 45 23 19 21 19 6 9 13 13 10 7 2 5 9 8 11 8 5 5 7 11 16 17 14 10 10 11 13
340 305 175 119 94 63 336 351 339 330 345 328 305 102 91 93 79 46 23 23 22 9 11 23 21 15 10 9 9 13 13 13 11 7 7 10 18 20 18 15 12 14 17 20
349 290 259 150 153 183 202 49 325 309 289 292 349 114 138 131 106 76 40 22 18 22 20 28 19 15 10 10 13 17 19 16 14 13 12 14 20 20 18 16 13 18 22 24
321 278 340 9 29 37 177 195 269 289 301 335 49 108 158 150 124 105 69 24 18 31 27 27 13 20 15 16 22 24 21 20 23 19 17 19 20 20 20 19 19 23 22 27
265 294 30 53 4 312 287 263 252 269 305 319 8 353 133 130 132 141 129 58 15 25 24 19 15 21 13 24 32 35 25 22 27 26 26 21 21 22 20 21 22 24 23 29
255 290 263 233 207 248 261 247 237 249 260 270 279 268 124 126 143 176 155 89 15 21 23 14 18 27 11 29 34 37 29 27 31 31 30 25 27 25 20 21 23 27 27 29
229 273 295 281 166 254 260 228 214 221 228 241 257 177 135 160 176 189 146 139 12 26 26 21 19 20 5 34 47 49 37 36 38 34 34 32 34 31 25 22 22 26 30 31
279 281 285 286 248 269 102 95 169 219 230 221 226 137 155 176 162 172 185 184 140 54 33 23 6 6 18 30 39 69 64 52 47 34 30 37 38 32 28 25 24 26 29 31
310 307 287 289 303 279 138 150 168 213 249 218 207 184 168 168 177 200 183 173 121 65 37 19 354 353 29 37 26 45 55 60 53 38 30 37 40 33 25 24 26 24 25 29
260 276 273 287 288 317 108 126 140 218 262 197 188 179 168 177 218 193 158 156 152 108 52 5 344 11 25 28 24 38 53 58 53 42 35 34 40 38 28 21 22 20 27 30
196 218 235 264 276 313 117 129 151 223 18 130 170 171 172 191 200 123 139 145 144 136 121 325 337 38 31 15 20 43 53 57 57 48 41 35 28 43 42 14 13 25 28 27
226 220 216 230 255 242 138 156 203 241 107 165 176 172 174 174 142 132 141 145 157 159 153 170 333 43 68 32 29 66 69 70 72 63 45 52 40 27 43 28 16 20 21 30
229 276 309 258 322 116 170 199 233 285 256 187 174 171 170 170 163 156 159 162 168 177 163 157 209 281 167 98 62 77 89 100 114 111 73 63 89 68 40 31 29 23 21 27
191 209 274 288 272 201 200 216 228 234 256 221 177 171 173 176 172 168 173 173 174 189 171 172 213 224 133 112 111 111 129 171 162 146 136 82 69 69 64 44 38 41 26 20
340 157 235 259 267 252 196 206 221 217 223 225 193 179 177 180 181 178 183 185 183 179 172 188 211 161 192 166 149 140 161 222 211 180 164 140 109 95 89 91 58 59 71 60
263 232 222 248 295 308 237 196 207 213 212 216 203 190 183 184 187 186 189 185 182 183 186 186 179 199 234 189 159 154 167 264 268 139 111 124 140 142 151 142 127 57 82 100
Height
1519 1519 1524 1525 1524 1525 1524 1526 1529 1534 1536 1538 1542 1548 1551 1555 1556 1557 1556 1555 1554 1553 1552 1549 1546 1542 1539 1535 1532 1529 1526 1523 1521 1518 1516 1514 1513 1512 1512 1511 1512 1512 1514 1515
1519 1523 1525 1524 1524 1524 1524 1527 1528 1533 1535 1537 1541 1545 1549 1554 1556 1557 1557 1556 1555 1553 1551 1548 1545 1541 1537 1534 1530 1527 1524 1521 1518 1515 1513 1511 1509 1508 1508 1507 1507 1508 1509 1510
1522 1528 1526 1526 1525 1527 1527 1529 1532 1536 1534 1536 1540 1545 1548 1552 1555 1556 1557 1557 1556 1554 1551 1548 1544 1540 1536 1532 1528 1525 1521 1518 1515 1512 1510 1507 1506 1504 1503 1503 1503 1503 1503 1505
1524 1528 1528 1527 1528 1533 1534 1533 1534 1535 1539 1538 1538 1551 1550 1550 1554 1556 1557 1557 1556 1554 1551 1548 1544 1539 1535 1531 1527 1523 1520 1516 1512 1509 1507 1504 1503 1501 1499 1499 1498 1498 1499 1500
1528 1529 1530 1531 1534 1537 1535 1533 1534 1534 1536 1538 1533 1542 1552 1549 1556 1557 1557 1557 1556 1554 1551 1548 1544 1540 1536 1531 1526 1522 1518 1514 1511 1507 1505 1502 1500 1498 1497 1496 1495 1494 1495 1495
1530 1532 1534 1535 1535 1536 1534 1533 1530 1530 1534 1544 1533 1540 1556 1555 1558 1557 1558 1558 1556 1554 1551 1548 1544 1540 1536 1531 1527 1522 1518 1514 1510 1506 1503 1500 1498 1496 1495 1493 1492 1491 1491 1492
1532 1531 1534 1536 1535 1532 1532 1536 1542 1542 1546 1543 1533 1540 1559 1556 1556 1557 1558 1558 1556 1554 1551 1548 1544 1540 1536 1531 1527 1522 1518 1514 1510 1506 1503 1500 1497 1495 1493 1491 1490 1490 1489 1489
1526 1535 1536 1537 1539 1541 1534 1537 1549 1555 1546 1542 1537 1545 1557 1553 1556 1557 1557 1557 1556 1554 1552 1548 1545 1541 1537 1533 1528 1523 1519 1515 1511 1507 1503 1500 1497 1494 1492 1491 1490 1489 1488 1488
1524 1541 1538 1540 1539 1539 1538 1533 1534 1542 1537 1537 1537 1547 1553 1552 1554 1556 1556 1557 1556 1554 1552 1549 1546 1542 1538 1534 1529 1525 1521 1516 1512 1508 1505 1501 1498 1495 1493 1492 1490 1489 1488 1487
1524 1534 1537 1538 1540 1538 1539 1538 1538 1541 1549 1552 1542 1544 1553 1554 1555 1555 1556 1556 1556 1554 1552 1549 1546 1543 1539 1535 1531 1527 1523 1519 1514 1511 1507 1504 1500 1497 1495 1493 1491 1490 1488 1487
1527 1529 1537 1538 1539 1542 1540 1537 1538 1539 1540 1554 1558 1561 1550 1553 1554 1555 1556 1556 1555 1554 1552 1549 1546 1543 1540 1536 1532 1528 1524 1520 1516 1513 1509 1506 1503 1500 1498 1495 1493 1492 1490 1489
1531 1531 1530 1536 1539 1541 1542 1543 1544 1550 1547 1543 1551 1563 1550 1552 1554 1555 1556 1556 1555 1554 1552 1549 1547 1544 1541 1537 1534 1530 1526 1522 1519 1516 1512 1509 1506 1503 1500 1498 1496 1494 1492 1491
1533 1535 1538 1545 1548 1545 1541 1544 1545 1545 1544 1544 1553 1560 1550 1551 1552 1554 1555 1555 1555 1553 1552 1550 1547 1544 1541 1538 1535 1532 1528 1525 1521 1518 1515 1512 1509 1506 1503 1501 1499 1497 1495 1493
1539 1533 1538 1549 1546 1539 1541 1543 1544 1547 1547 1545 1546 1549 1548 1548 1551 1553 1554 1554 1554 1553 1551 1550 1547 1545 1542 1539 1537 1533 1530 1527 1524 1521 1518 1515 1512 1509 1507 1504 1502 1500 1498 1496
1538 1533 1532 1536 1537 1538 1540 1541 1542 1544 1544 1547 1545 1545 1544 1546 1550 1552 1553 1553 1553 1552 1551 1550 1548 1545 1543 1540 1538 1535 1532 1529 1526 1523 1520 1518 1515 1512 1510 1507 1505 1503 1501 1499
1536 1534 1533 1535 1535 1536 1538 1537 1539 1541 1541 1542 1542 1543 1541 1545 1548 1550 1551 1552 1552 1552 1551 1550 1548 1546 1544 1541 1539 1536 1534 1531 1529 1526 1523 1520 1518 1515 1512 1510 1508 1506 1504 1502
1532 1533 1536 1534 1531 1535 1535 1527 1532 1535 1535 1537 1541 1539 1540 1544 1546 1548 1549 1551 1551 1551 1550 1549 1548 1546 1544 1542 1540 1537 1535 1533 1530 1528 1526 1523 1520 1517 1515 1513 1511 1509 1507 1505
1531 1532 1535 1534 1533 1544 1531 1522 1524 1529 1530 1531 1533 1536 1539 1542 1545 1547 1548 1549 1550 1550 1550 1549 1548 1546 1545 1543 1541 1538 1536 1534 1532 1530 1528 1526 1523 1520 1518 1516 1514 1512 1510 1508
1533 1535 1538 1536 1537 1526 1528 1523 1525 1530 1530 1527 1530 1534 1538 1541 1544 1545 1546 1548 1549 1549 1549 1549 1548 1546 1545 1543 1542 1540 1538 1536 1533 1531 1530 1528 1525 1523 1521 1518 1517 1515 1513 1512
1536 1535 1540 1538 1543 1537 1527 1522 1524 1529 1530 1521 1526 1530 1535 1540 1543 1541 1543 1546 1548 1548 1548 1548 1547 1546 1545 1544 1542 1540 1539 1537 1535 1533 1531 1530 1527 1525 1523 1521 1520 1518 1516 1515
1538 1538 1542 1543 1540 1525 1523 1523 1527 1537 1529 1521 1524 1528 1533 1536 1539 1539 1541 1544 1546 1547 1548 1547 1547 1546 1545 1544 1542 1541 1539 1538 1536 1534 1533 1531 1530 1528 1526 1524 1522 1521 1519 1518
1528 1530 1532 1534 1538 1533 1523 1524 1526 1525 1522 1523 1524 1527 1531 1535 1538 1539 1541 1543 1545 1546 1547 1546 1546 1546 1545 1544 1543 1541 1540 1538 1537 1536 1534 1533 1531 1530 1528 1527 1525 1523 1522 1520
1522 1521 1521 1524 1525 1520 1520 1521 1521 1521 1521 1522 1524 1526 1529 1533 1535 1538 1540 1542 1544 1545 1545 1546 1545 1545 1545 1544 1543 1541 1540 1539 1538 1537 1536 1535 1534 1532 1530 1529 1527 1525 1524 1523
1513 1516 1519 1520 1516 1515 1516 1518 1519 1520 1521 1521 1522 1525 1528 1530 1533 1536 1539 1541 1542 1543 1544 1544 1544 1544 1544 1543 1543 1542 1540 1540 1539 1538 1537 1536 1535 1534 1532 1531 1529 1527 1526 1525
1513 1515 1518 1518 1514 1512 1512 1514 1515 1517 1519 1520 1521 1523 1525 1528 1531 1533 1536 1538 1540 1541 1542 1543 1543 1543 1543 1543 1542 1541 1540 1540 1539 1539 1538 1537 1536 1535 1534 1533 1531 1530 1528 1527
1512 1511 1515 1515 1509 1509 1509 1509 1511 1514 1515 1517 1519 1521 1523 1525 1528 1531 1533 1535 1537 1539 1540 1541 1541 1541 1542 1542 1541 1540 1540 1539 1539 1539 1539 1538 1537 1536 1535 1534 1533 1532 1530 1529